Voltar ao catálogo

FENGYUN 1C DEB

AtivoSSO
NORAD 30225·DEBRIS·🇨🇳 China

Lançado May 10, 1999 de Taiyuan Satellite Launch Center

Loading…

Próximas Passagens (próximas 24 horas)

TLE

AtualizadoSource: Space-Track

Época: Sep 13, 2026, 00:29 UTC

1 30225U 99025WJ  26256.02058840  .00000159  00000-0  98716-4 0  9995
2 30225  98.6370 279.5233 0099645  20.8723  39.6098 14.15350711 14113

Acompanhe FENGYUN 1C DEB em tempo real com AllMySat

Download on the App Store